This demonstration page uses our WeatherBlox Daily Observations layout. Learn more.

Left ArrowRight Arrow

Hourly Observations for February 4, 2017

Temp ( °F °C ) Dew Point ( °F °C ) Humidity (%) Winds ( mph kmh ) Pressure ( in mb ) Visibility ( mi km ) Precip ( " mm )
12:51 am 00:51 Clear 39 3.9 29 -1.7 67 67 SE 6 9 30.04 1017 10 16 N/A
1:51 am 01:51 Clear 40 4.4 28 -2.2 63 63 SE 5 7 30.03 1017 10 16 N/A
2:51 am 02:51 Clear 38 3.3 28 -2.2 68 68 N N/A 30.03 1017 10 16 N/A
3:51 am 03:51 Clear 37 2.8 29 -1.7 73 73 NW 5 7 30.04 1017 10 16 N/A
4:51 am 04:51 Clear 35 1.7 28 -2.2 76 76 N N/A 30.05 1018 10 16 N/A
5:51 am 05:51 Clear 35 1.7 28 -2.2 76 76 N N/A 30.07 1018 10 16 N/A
6:51 am 06:51 Clear 34 1.1 28 -2.2 79 79 SSE 3 6 30.09 1019 10 16 N/A
7:51 am 07:51 Sunny 35 1.7 28 -2.2 76 76 SSE 5 7 30.11 1020 10 16 N/A
8:51 am 08:51 Sunny 44 6.7 29 -1.7 55 55 SSE 6 9 30.11 1020 10 16 N/A
9:51 am 09:51 Sunny 51 10.6 29 -1.7 43 43 S 5 7 30.11 1020 10 16 N/A
10:51 am 10:51 Sunny 57 13.9 26 -3.3 30 30 SE 8 13 30.11 1020 10 16 N/A
11:51 am 11:51 Sunny 62 16.7 27 -2.8 26 26 ESE 6 9 30.06 1018 10 16 N/A
12:51 pm 12:51 Sunny 64 17.8 25 -3.9 23 23 N N/A 30.03 1017 10 16 N/A
1:51 pm 13:51 Sunny 67 19.4 26 -3.3 21 21 VRB 3 6 30.00 1016 10 16 N/A
2:51 pm 14:51 Sunny 69 20.6 26 -3.3 20 20 VRB 5 7 29.98 1015 10 16 N/A
3:51 pm 15:51 Sunny 69 20.6 26 -3.3 20 20 WNW 7 11 29.96 1015 10 16 N/A
4:51 pm 16:51 Sunny 69 20.6 24 -4.4 18 18 WNW 9 15 29.96 1015 10 16 N/A
5:51 pm 17:51 Sunny 62 16.7 25 -3.9 24 24 WNW 9 15 29.98 1015 10 16 N/A
6:51 pm 18:51 Clear 55 12.8 26 -3.3 33 33 N 9 15 30.01 1016 10 16 N/A
7:51 pm 19:51 Clear 51 10.6 27 -2.8 39 39 N 7 11 30.03 1017 10 16 N/A
8:51 pm 20:51 Clear 51 10.6 26 -3.3 38 38 E 3 6 30.02 1017 10 16 N/A
9:51 pm 21:51 Clear 45 7.2 27 -2.8 49 49 E 3 6 30.04 1017 10 16 N/A
10:51 pm 22:51 Clear 43 6.1 26 -3.3 51 51 ENE 5 7 30.03 1017 10 16 N/A
11:51 pm 23:51 Clear 41 5 26 -3.3 55 55 N N/A 30.04 1017 10 16 N/A

Powered by AerisWeather